Temperature
23 23 22 22 20 20 22 23 24 24 24 24 24 24 22 21 21 21 20 21 21 20 20 19 19 19 20 20 19 19 19 19 19 19 19 19 19 19 18 18 18 18 18 18 18 18 18 18 18
23 23 23 22 20 21 22 24 24 24 24 24 24 23 22 20 20 20 20 20 21 20 20 20 20 20 20 20 19 19 19 19 19 19 19 19 19 18 18 18 18 18 18 18 18 18 18 17 17
24 23 23 20 21 22 23 24 24 25 25 25 24 23 22 20 21 21 21 20 20 20 20 20 20 20 20 19 19 19 19 19 19 19 19 19 18 18 18 18 18 18 18 18 18 18 17 17 17
24 24 23 21 23 23 24 24 24 24 25 24 23 22 21 21 21 22 21 21 20 20 20 20 20 20 20 19 19 19 19 19 19 19 19 19 18 18 18 18 18 18 18 18 17 17 17 17 17
25 24 21 21 23 24 24 25 25 24 24 24 23 21 20 21 22 22 21 21 21 20 20 20 20 20 20 19 19 19 19 19 19 19 19 18 18 18 18 18 18 18 17 17 17 17 17 17 17
25 22 21 22 23 25 25 25 25 24 24 24 23 21 20 21 22 22 21 21 21 20 20 20 20 20 19 19 19 19 19 19 19 19 18 18 18 18 18 18 18 18 18 17 17 17 17 17 17
24 21 22 23 23 25 26 26 25 24 23 23 23 20 19 20 21 21 21 20 20 20 20 20 19 19 19 19 19 19 19 19 19 18 18 18 18 18 18 18 18 18 18 17 17 17 17 17 17
25 20 23 22 24 25 26 26 25 25 24 24 23 21 20 21 21 21 20 20 20 20 20 20 19 19 19 19 19 19 19 19 18 18 18 18 18 18 18 18 18 18 18 17 17 17 17 17 17
25 21 22 24 25 25 26 25 25 25 24 23 23 23 23 21 21 20 20 19 19 19 19 19 19 19 19 19 19 19 18 18 18 18 18 18 18 18 18 18 18 18 18 17 17 17 17 17 17
24 21 24 24 25 25 26 25 25 25 23 23 22 22 22 21 21 20 20 20 20 20 19 19 19 19 19 19 19 18 18 18 18 18 18 18 18 18 18 18 18 18 17 17 17 17 17 17 17
24 23 24 25 26 26 26 26 26 24 23 23 23 22 22 21 21 21 21 21 21 20 20 19 19 19 19 19 19 18 18 18 18 18 18 18 18 18 18 18 18 18 17 17 17 17 17 17 17
24 25 26 27 27 27 26 26 25 25 25 26 25 24 22 21 21 21 21 21 20 20 20 20 19 19 19 19 19 19 18 18 18 18 18 18 18 18 18 18 18 18 18 17 17 17 17 17 17
25 25 27 27 27 26 26 25 25 25 26 26 24 23 22 22 21 21 21 21 21 20 20 20 19 19 19 19 18 18 18 18 18 18 18 18 18 18 18 18 18 18 18 17 17 17 17 17 17
26 25 26 26 27 26 25 25 25 24 25 24 23 22 22 22 22 21 20 21 21 20 20 20 19 19 19 19 19 19 18 18 18 18 18 18 18 18 18 18 18 18 18 17 17 17 17 17 17
25 24 25 26 26 26 26 25 24 25 24 23 22 22 22 22 21 21 21 21 21 20 20 20 20 19 19 18 18 18 18 18 18 18 18 18 18 18 18 18 18 18 18 17 17 17 17 17 17
24 23 24 25 25 26 26 24 24 24 24 22 22 22 21 21 22 22 21 21 21 20 20 20 19 19 19 18 18 18 18 18 18 18 18 18 18 18 18 18 18 18 18 17 17 17 17 17 17
22 23 24 24 25 25 25 24 24 24 23 22 21 21 21 21 21 21 21 21 21 20 20 20 19 19 19 18 18 18 18 18 18 18 18 18 18 18 18 18 17 17 17 17 17 17 17 17 17
24 24 24 23 24 24 24 23 23 23 22 22 21 21 21 21 22 22 21 21 20 20 20 19 19 19 19 18 18 18 18 18 18 18 18 18 18 18 18 18 17 17 17 17 17 17 17 17 17
24 23 23 23 24 23 23 23 22 22 22 22 21 21 21 22 22 22 21 21 20 20 20 19 19 19 18 18 18 18 18 18 18 18 18 18 18 18 18 17 17 17 17 17 17 17 17 17 17
23 23 23 23 24 24 23 22 22 22 22 22 22 21 22 22 21 21 21 21 20 20 20 19 19 19 19 18 18 18 18 18 18 18 18 18 18 18 18 18 17 17 17 17 17 17 17 17 17
23 23 23 23 23 23 23 22 22 22 22 22 22 22 22 22 22 21 21 21 20 20 20 19 19 19 19 18 18 17 17 17 17 18 18 18 18 18 18 18 18 17 17 17 17 17 17 17 17
23 23 23 24 23 21 23 22 22 21 20 21 21 21 21 22 22 22 21 21 21 20 20 19 19 19 18 18 18 17 17 17 18 18 18 18 18 18 17 17 17 17 17 17 17 17 17 17 17
23 24 23 23 22 21 21 21 21 20 21 21 20 21 21 22 22 22 21 21 21 20 20 19 19 19 18 18 18 18 18 18 18 18 18 18 17 17 17 17 17 17 17 17 17 17 17 17 17
24 22 21 18 19 21 22 22 21 19 21 21 20 21 22 22 22 22 21 21 20 20 19 19 19 18 18 18 18 17 17 18 17 17 17 17 17 17 17 17 17 17 17 17 17 17 17 17 17
23 21 20 21 19 20 20 21 20 21 21 21 21 21 22 22 22 22 21 20 20 20 19 19 18 18 18 18 18 17 18 17 17 17 17 17 17 17 17 17 17 17 17 17 17 17 17 17 17
22 21 20 21 20 20 20 21 21 21 21 22 22 22 22 22 22 22 21 21 20 20 19 19 19 18 18 18 18 17 17 17 17 17 17 17 17 17 17 17 17 17 17 17 17 17 17 17 17
21 20 20 18 19 20 20 20 21 22 21 20 21 21 21 22 22 22 21 21 20 20 19 19 19 18 18 18 18 17 17 17 17 17 17 17 17 17 17 17 17 17 17 17 17 17 17 17 17
22 18 17 18 19 20 21 21 20 22 21 20 20 20 21 22 22 22 21 21 20 20 19 19 19 18 18 18 18 17 17 17 17 17 17 17 17 17 17 17 17 17 17 17 17 17 17 17 17
21 20 17 16 18 19 20 20 21 21 21 20 20 21 21 22 22 22 21 21 20 20 19 19 19 18 18 18 17 17 17 17 17 17 17 17 17 17 17 17 17 17 17 17 17 17 17 17 17
22 20 18 20 19 17 18 20 21 20 20 20 21 21 22 22 22 22 22 21 20 20 19 19 19 18 18 18 18 17 17 17 17 17 17 17 17 17 17 17 17 17 17 17 17 16 16 16 16
Wind_Speed
3 4 3 2 5 6 4 4 2 2 2 2 4 5 6 4 3 3 4 11 16 14 16 19 19 19 18 18 18 18 18 18 17 17 16 15 15 14 14 13 13 12 13 13 13 13 13 14 14
2 3 2 3 6 4 4 4 2 2 2 4 5 5 5 4 4 8 7 11 16 15 16 18 20 19 18 18 17 17 17 16 16 16 15 14 14 14 13 13 12 12 12 13 13 13 14 14 14
3 2 3 5 4 3 2 2 0 2 3 3 4 5 4 4 6 6 8 15 14 13 15 19 21 19 18 18 17 16 16 16 15 15 14 13 13 13 13 12 12 12 12 13 13 13 13 14 14
2 3 5 6 2 3 4 3 2 2 2 4 4 5 4 3 5 8 15 16 15 11 15 19 20 19 18 17 17 16 16 15 15 14 13 13 12 12 12 12 12 12 13 13 13 13 13 13 13
3 4 6 5 4 3 3 3 3 2 1 2 4 5 4 4 10 16 16 16 15 11 13 18 20 19 19 18 16 16 15 14 14 13 12 12 12 12 12 11 12 12 12 13 13 13 12 12 13
4 5 6 3 6 4 1 2 3 2 2 3 4 5 3 4 12 15 15 13 13 12 12 17 19 19 18 17 16 16 15 14 13 13 12 12 12 11 11 11 11 12 12 12 12 12 12 12 12
4 5 3 1 4 3 1 2 3 3 2 3 5 6 3 6 9 13 12 12 11 10 10 12 16 17 17 17 16 15 14 14 13 12 12 11 11 11 11 10 11 11 11 12 12 12 11 11 11
5 5 3 1 2 3 1 2 2 4 2 3 4 7 7 8 12 13 12 11 10 8 7 8 11 13 14 15 15 14 14 13 12 12 11 11 11 10 10 9 10 11 11 11 11 11 10 10 10
4 5 1 3 3 3 1 2 1 3 4 2 2 3 8 17 16 15 13 11 10 10 7 7 8 9 11 12 13 13 13 13 12 11 11 10 8 8 8 8 9 10 10 10 10 10 9 9 9
5 2 5 5 4 3 2 3 4 3 3 2 4 7 16 18 17 17 17 16 15 13 10 7 7 8 10 10 11 10 10 10 9 8 9 9 9 7 7 7 8 9 9 9 9 9 9 8 8
3 4 5 4 4 4 3 3 4 6 4 7 9 15 19 18 16 16 15 14 14 13 11 9 7 8 8 7 8 8 7 8 8 8 9 9 7 6 4 4 5 6 7 7 7 8 8 7 7
2 5 4 5 2 1 4 4 4 5 6 6 13 19 20 19 16 16 16 14 12 12 11 10 8 7 7 7 7 7 6 6 6 8 9 8 5 4 4 3 4 5 5 6 6 6 6 6 6
1 4 4 5 5 2 3 4 3 3 2 9 15 17 18 17 14 11 11 12 11 12 12 11 9 8 6 6 6 7 5 6 7 7 8 9 6 4 4 4 4 4 4 4 5 5 5 4 4
3 5 6 6 3 1 4 2 2 3 6 12 14 15 15 14 13 10 10 11 12 12 12 11 10 9 7 5 5 6 7 7 7 7 9 9 7 6 5 4 4 3 4 4 4 4 4 3 3
2 5 7 4 3 1 4 2 3 4 9 11 12 12 12 11 11 12 13 12 12 12 11 12 12 9 8 7 6 7 8 8 7 8 9 10 9 8 7 4 3 4 4 4 4 4 3 2 2
4 5 5 6 4 1 4 3 4 6 10 9 10 10 10 9 10 9 10 9 10 10 11 11 12 11 10 8 6 6 7 8 8 9 9 10 10 10 8 5 4 5 5 4 3 2 2 1 2
6 4 4 7 3 2 2 4 4 6 9 9 9 9 9 8 8 8 9 10 10 11 11 11 11 12 11 8 6 6 6 7 7 8 9 10 10 10 9 6 5 6 4 3 3 2 2 2 2
1 2 4 6 5 3 1 4 3 5 7 8 8 8 8 9 10 8 9 9 9 9 10 11 10 10 9 6 4 3 4 4 6 7 8 10 10 10 9 6 6 6 4 3 2 2 2 2 2
2 2 5 6 5 2 2 3 4 4 5 6 7 8 8 8 5 6 8 9 9 9 10 10 10 9 8 6 5 5 5 4 4 5 8 9 10 10 10 6 5 6 4 5 5 3 2 1 2
2 3 5 5 4 2 2 3 3 3 6 7 8 9 9 7 5 6 8 9 10 11 10 10 11 10 9 8 6 4 4 3 4 4 6 9 10 10 10 7 5 5 4 5 5 3 3 2 2
3 5 5 4 5 5 3 6 3 2 1 3 5 6 7 9 9 8 8 8 9 10 12 12 11 10 10 8 5 3 2 2 2 4 4 6 10 10 9 9 7 6 5 5 6 5 5 3 2
5 6 6 3 1 3 3 3 6 3 3 5 7 7 8 8 7 7 8 8 9 9 9 8 9 9 9 9 8 8 7 6 6 5 5 4 7 9 10 9 9 7 5 6 6 5 4 4 3
6 0 2 1 3 2 3 1 8 3 5 7 7 8 8 8 8 8 7 8 7 7 7 7 7 7 8 9 10 9 7 6 4 4 5 5 4 7 9 9 8 7 6 6 6 6 5 4 4
4 6 7 6 5 2 2 1 7 5 7 6 6 7 8 8 8 7 5 5 5 6 6 6 7 7 7 8 8 9 9 7 6 6 6 5 4 4 6 7 7 7 6 6 6 6 7 5 5
5 6 5 5 5 4 4 2 9 8 7 7 8 9 8 8 8 8 7 7 7 6 6 6 7 6 6 7 8 8 8 8 8 7 7 6 4 4 6 6 6 6 6 7 6 6 6 6 6
6 9 8 5 4 5 4 5 8 7 6 4 5 7 7 8 8 9 8 8 7 7 7 7 7 5 5 6 6 6 6 6 5 6 6 6 5 5 6 6 7 7 7 7 6 5 6 5 6
7 5 8 7 4 0 5 7 9 3 3 1 3 6 7 8 8 8 8 8 7 7 7 7 7 5 5 6 5 4 5 5 6 6 5 5 4 4 5 6 6 6 6 6 6 5 6 6 6
6 10 7 7 6 3 5 5 5 7 5 3 4 6 7 7 8 8 7 7 7 6 5 5 6 5 5 5 5 5 5 5 5 5 5 5 5 4 5 6 6 6 6 6 6 5 5 6 5
6 6 6 6 6 7 4 8 8 9 8 8 8 7 8 8 8 8 7 7 7 6 5 5 5 5 4 5 5 5 4 4 5 5 4 4 4 5 5 6 6 6 6 6 6 6 6 6 5
6 9 9 6 5 5 5 8 7 8 8 8 8 7 7 8 7 7 7 7 6 6 5 5 5 5 5 5 5 5 4 4 4 4 3 3 3 4 5 5 5 5 5 6 6 6 6 6 6
Wind_Direction
219 165 141 113 58 49 22 335 351 39 53 79 117 116 122 121 157 153 122 137 134 140 146 145 141 137 132 127 124 122 121 121 121 122 123 124 126 127 128 128 129 127 123 120 118 116 115 115 116
167 158 131 66 71 53 335 321 24 37 112 104 90 86 87 77 81 110 129 141 139 140 143 145 143 139 135 131 128 125 124 123 124 124 125 126 127 128 127 127 129 129 127 125 122 118 115 116 117
189 170 90 68 77 142 257 284 138 66 81 75 83 64 77 105 123 133 145 141 135 136 142 149 146 142 139 135 132 130 127 126 126 126 127 126 125 127 127 127 127 127 127 127 123 119 118 118 118
122 58 53 62 46 232 220 230 176 112 29 52 93 73 65 71 135 137 139 140 136 135 143 151 148 145 142 139 137 134 132 130 129 129 129 127 127 127 127 126 126 125 126 125 122 120 119 118 118
67 74 54 34 326 273 232 206 171 150 62 59 92 92 57 24 111 130 138 142 141 139 146 153 151 149 146 144 142 138 136 135 133 133 132 132 129 128 126 126 126 125 126 124 123 120 120 119 120
54 62 68 8 320 312 244 167 151 142 119 101 104 101 63 105 127 138 140 141 143 143 145 152 153 152 150 148 146 143 141 139 137 136 134 132 131 130 128 127 126 126 126 126 124 122 121 122 123
91 81 95 320 312 316 253 142 147 152 150 150 129 110 112 140 140 136 134 135 137 138 140 147 154 156 154 153 151 148 146 144 142 140 137 134 133 131 131 130 129 127 126 126 124 123 123 122 126
115 93 60 335 288 287 235 114 124 137 150 114 119 142 166 163 139 130 127 131 136 137 139 142 148 153 155 156 155 153 151 149 148 146 143 140 138 135 133 131 130 130 130 129 125 124 122 123 128
85 69 2 250 230 271 171 115 86 107 110 107 108 148 149 138 136 136 137 142 150 154 148 143 144 146 149 152 158 157 156 155 152 152 148 137 125 125 129 134 134 134 134 132 128 125 121 118 127
84 113 239 228 213 235 221 169 158 117 119 117 82 96 128 140 148 154 159 163 167 167 164 155 149 147 149 156 155 154 154 152 148 145 138 130 126 129 133 143 139 137 135 131 127 125 115 109 113
137 199 252 265 231 228 220 176 149 142 194 196 167 149 149 153 161 167 169 171 173 169 168 164 157 154 153 150 149 147 148 147 146 145 141 137 131 128 125 124 119 122 121 113 112 108 108 112 116
195 255 256 277 293 230 199 158 155 187 220 181 157 154 157 165 172 175 173 174 171 170 172 167 159 153 155 152 152 153 154 154 155 157 154 149 142 139 139 128 117 109 110 107 107 112 114 114 124
251 288 289 275 298 241 163 158 166 232 205 126 136 153 165 172 175 174 170 169 171 175 174 171 163 160 157 155 162 164 166 169 169 168 170 169 163 162 160 153 144 132 129 127 121 123 119 115 124
283 289 297 293 299 209 148 156 135 233 135 131 146 163 173 176 174 167 169 175 179 179 178 171 167 167 163 167 171 168 177 181 180 183 184 183 179 173 171 168 166 164 159 154 144 139 133 128 129
314 337 338 340 353 20 111 21 225 184 136 142 157 169 177 181 176 182 185 182 181 180 178 174 173 169 170 178 185 179 185 186 191 196 193 193 191 186 181 179 183 186 174 159 138 125 126 135 139
31 31 347 312 347 14 111 253 251 157 151 159 168 174 179 185 188 189 184 177 176 174 177 178 180 175 179 182 185 183 189 192 198 198 196 199 197 191 182 184 192 186 167 155 140 128 124 130 140
28 11 321 312 335 22 107 249 258 159 163 171 178 181 182 184 194 189 181 177 177 177 177 179 180 179 182 182 182 185 188 194 197 195 195 199 197 191 185 189 190 179 165 160 164 142 143 156 159
299 324 315 300 306 6 309 257 265 181 177 183 184 185 184 192 203 186 179 175 176 177 176 180 178 176 175 171 168 174 188 196 193 195 199 196 194 192 187 190 187 177 166 167 161 146 130 142 151
177 265 290 280 295 333 279 267 267 200 186 192 195 192 193 205 193 165 169 173 172 174 175 179 176 175 170 169 179 184 199 198 200 205 203 195 192 189 183 187 182 178 180 180 165 144 138 132 126
209 288 288 302 342 19 325 311 308 211 206 207 202 197 195 192 174 170 169 170 176 179 179 178 182 182 182 184 181 180 179 190 202 208 203 197 192 190 191 185 182 180 176 169 169 158 145 148 152
242 214 235 263 342 19 25 339 323 306 251 230 217 201 190 190 189 185 179 176 174 180 184 188 187 185 185 178 160 149 137 139 183 211 210 203 196 192 191 189 185 181 179 186 187 177 163 167 177
259 228 210 230 30 320 30 300 295 297 290 243 224 204 195 192 186 184 182 181 184 188 185 182 181 180 180 174 176 178 188 195 203 200 201 198 198 194 195 190 186 182 183 189 195 186 173 160 177
218 171 134 106 144 27 18 148 288 324 274 255 231 209 197 189 181 186 189 187 183 176 178 178 176 180 179 181 185 187 197 201 193 183 184 192 195 198 198 194 187 184 188 193 193 182 181 177 178
161 69 53 47 70 29 302 188 279 254 237 254 232 208 193 180 171 172 171 162 164 163 169 171 178 188 185 186 190 194 196 192 183 184 187 193 193 197 197 194 190 188 191 195 197 193 190 191 186
111 90 31 4 15 259 289 235 254 258 248 238 226 205 190 174 168 165 167 170 173 171 171 171 179 189 188 191 197 200 199 193 191 189 191 190 191 199 203 196 192 194 198 198 191 189 195 193 191
171 141 156 190 216 274 321 249 260 275 287 262 204 181 173 171 172 171 173 174 175 175 175 176 184 189 188 192 196 196 195 192 193 188 187 194 200 204 199 196 198 199 198 199 191 192 200 195 198
139 169 155 130 146 292 290 291 303 299 343 35 150 160 173 177 176 170 166 169 172 178 183 183 181 181 189 193 187 190 195 193 191 186 185 193 200 200 197 199 199 201 198 196 190 199 202 192 199
142 141 109 125 145 219 287 283 256 270 257 224 192 186 182 174 169 167 168 169 172 177 182 175 172 178 180 179 183 192 191 190 187 182 189 197 200 197 193 198 197 199 198 195 190 195 195 186 193
115 113 111 117 145 153 219 266 231 229 224 213 211 198 185 182 174 171 172 169 162 158 163 165 166 167 171 173 174 173 179 179 176 176 186 194 199 198 200 198 195 196 196 190 185 191 187 187 191
166 165 148 151 191 168 172 260 268 239 230 212 210 200 186 180 171 167 162 159 159 163 166 169 169 166 167 164 160 166 163 164 171 178 186 187 194 200 198 188 187 196 195 187 186 190 188 188 192
Height
1501 1500 1500 1502 1505 1515 1518 1510 1504 1503 1503 1503 1503 1505 1507 1511 1515 1520 1517 1519 1523 1526 1530 1533 1536 1538 1540 1542 1543 1545 1546 1547 1548 1550 1551 1552 1553 1554 1555 1556 1557 1558 1559 1560 1562 1563 1564 1565 1566
1501 1501 1502 1503 1513 1529 1523 1509 1506 1504 1503 1504 1505 1506 1508 1510 1511 1513 1515 1520 1525 1528 1531 1534 1537 1540 1542 1544 1545 1547 1548 1549 1550 1552 1553 1554 1555 1556 1557 1558 1559 1560 1561 1562 1563 1565 1566 1567 1568
1502 1502 1504 1506 1518 1526 1519 1508 1505 1504 1504 1505 1506 1508 1510 1512 1512 1514 1517 1521 1526 1529 1533 1536 1539 1541 1543 1545 1547 1548 1550 1551 1552 1553 1555 1556 1557 1558 1559 1560 1561 1562 1563 1564 1565 1567 1568 1569 1570
1503 1504 1506 1513 1518 1514 1510 1506 1504 1505 1505 1506 1507 1510 1512 1515 1515 1516 1519 1523 1527 1531 1534 1537 1540 1543 1545 1547 1548 1550 1551 1553 1554 1555 1556 1557 1559 1560 1561 1562 1563 1564 1565 1566 1567 1569 1570 1571 1572
1504 1504 1513 1521 1517 1510 1506 1504 1505 1505 1506 1507 1508 1511 1514 1516 1517 1519 1521 1525 1528 1532 1536 1538 1541 1544 1546 1548 1550 1551 1553 1554 1555 1557 1558 1559 1560 1562 1563 1563 1564 1566 1567 1568 1569 1571 1572 1573 1574
1505 1507 1523 1527 1518 1508 1504 1504 1505 1506 1507 1508 1509 1512 1515 1517 1518 1521 1523 1527 1530 1533 1537 1540 1543 1545 1547 1549 1551 1553 1554 1556 1557 1558 1560 1561 1562 1563 1564 1565 1566 1567 1569 1570 1571 1573 1574 1575 1577
1507 1513 1522 1522 1519 1511 1505 1504 1505 1506 1507 1509 1509 1512 1515 1517 1519 1522 1525 1528 1532 1535 1538 1541 1543 1546 1548 1550 1552 1554 1556 1557 1559 1560 1561 1562 1564 1565 1566 1567 1568 1569 1571 1572 1573 1575 1576 1577 1579
1507 1513 1520 1521 1518 1512 1505 1505 1506 1507 1508 1510 1510 1511 1514 1516 1519 1523 1526 1529 1533 1536 1539 1541 1544 1547 1549 1551 1554 1555 1557 1558 1560 1562 1563 1564 1565 1567 1568 1569 1570 1571 1573 1574 1575 1577 1578 1579 1581
1508 1518 1524 1518 1514 1509 1505 1506 1507 1507 1508 1509 1510 1511 1512 1515 1519 1523 1526 1529 1533 1536 1539 1542 1545 1547 1550 1552 1554 1556 1558 1560 1561 1563 1564 1565 1566 1568 1569 1570 1572 1573 1574 1575 1577 1578 1580 1581 1583
1509 1521 1516 1509 1507 1505 1504 1505 1506 1507 1508 1509 1510 1511 1513 1515 1518 1521 1524 1527 1531 1535 1538 1542 1545 1547 1550 1552 1554 1557 1559 1560 1562 1564 1565 1567 1568 1569 1570 1572 1573 1575 1576 1577 1578 1580 1581 1583 1584
1509 1513 1508 1505 1503 1503 1503 1504 1505 1506 1508 1507 1507 1509 1512 1515 1518 1521 1524 1527 1530 1534 1538 1541 1544 1548 1550 1552 1555 1557 1559 1561 1563 1564 1566 1568 1569 1570 1572 1573 1574 1576 1577 1578 1580 1581 1583 1584 1585
1510 1507 1506 1503 1502 1502 1502 1503 1505 1505 1504 1505 1507 1508 1511 1513 1516 1519 1523 1527 1531 1534 1537 1541 1544 1547 1550 1553 1555 1557 1559 1561 1563 1565 1567 1569 1570 1571 1573 1574 1575 1577 1578 1580 1581 1582 1584 1585 1586
1509 1507 1504 1502 1500 1501 1501 1502 1504 1504 1504 1505 1508 1510 1512 1514 1517 1521 1524 1527 1530 1533 1537 1540 1543 1547 1550 1553 1556 1558 1560 1562 1564 1566 1568 1569 1571 1572 1574 1575 1577 1578 1579 1581 1582 1583 1585 1586 1587
1508 1506 1504 1501 1499 1500 1501 1502 1504 1503 1504 1505 1507 1510 1512 1515 1517 1521 1524 1526 1529 1533 1536 1539 1543 1546 1549 1552 1555 1558 1560 1563 1564 1566 1568 1570 1572 1573 1575 1576 1578 1579 1580 1582 1583 1584 1586 1587 1588
1507 1507 1504 1501 1500 1501 1502 1506 1504 1503 1504 1506 1508 1510 1513 1515 1518 1520 1522 1525 1529 1533 1536 1539 1542 1546 1549 1552 1555 1558 1560 1562 1564 1566 1568 1570 1572 1573 1575 1577 1578 1580 1581 1583 1584 1585 1586 1587 1588
1508 1514 1517 1506 1502 1502 1506 1514 1503 1503 1505 1506 1509 1511 1513 1516 1518 1520 1522 1525 1529 1532 1535 1538 1541 1544 1548 1551 1554 1557 1560 1562 1564 1566 1568 1570 1571 1573 1575 1577 1579 1580 1581 1583 1584 1585 1586 1587 1589
1520 1526 1522 1512 1503 1503 1507 1511 1503 1503 1505 1506 1508 1510 1513 1516 1518 1520 1522 1525 1529 1532 1535 1537 1540 1543 1546 1550 1553 1556 1559 1562 1564 1566 1567 1569 1571 1573 1575 1577 1578 1580 1581 1583 1584 1585 1586 1588 1589
1526 1525 1523 1519 1507 1506 1508 1509 1504 1504 1505 1506 1508 1511 1513 1515 1516 1519 1522 1525 1528 1531 1534 1536 1539 1541 1545 1548 1552 1555 1557 1560 1563 1565 1567 1569 1571 1572 1574 1576 1578 1579 1581 1582 1584 1585 1586 1587 1589
1518 1522 1525 1518 1507 1509 1510 1509 1506 1504 1506 1507 1508 1510 1512 1513 1516 1519 1521 1524 1527 1530 1532 1534 1537 1540 1543 1546 1549 1552 1555 1558 1560 1563 1566 1567 1570 1572 1573 1575 1577 1578 1580 1582 1583 1584 1585 1587 1588
1518 1522 1523 1516 1507 1509 1511 1510 1506 1504 1505 1505 1506 1507 1509 1512 1515 1517 1519 1522 1525 1527 1530 1533 1535 1537 1540 1543 1547 1550 1553 1556 1559 1561 1564 1566 1568 1570 1572 1574 1575 1577 1579 1581 1582 1583 1584 1586 1587
1517 1520 1519 1518 1512 1511 1513 1516 1510 1505 1505 1505 1505 1506 1508 1510 1513 1515 1518 1520 1523 1525 1527 1530 1533 1535 1538 1541 1545 1548 1551 1553 1556 1558 1560 1563 1566 1568 1570 1572 1574 1576 1578 1579 1581 1582 1583 1584 1586
1520 1510 1512 1514 1521 1527 1521 1534 1516 1509 1506 1503 1502 1504 1506 1509 1511 1514 1517 1519 1521 1524 1526 1529 1531 1534 1536 1539 1541 1544 1547 1549 1552 1555 1558 1560 1563 1566 1568 1570 1572 1574 1576 1577 1579 1580 1582 1583 1584
1510 1506 1509 1513 1520 1529 1526 1533 1525 1512 1509 1503 1500 1501 1504 1506 1509 1513 1516 1518 1521 1523 1525 1528 1530 1532 1534 1536 1539 1541 1543 1546 1549 1552 1555 1558 1561 1563 1566 1568 1570 1572 1573 1575 1577 1578 1580 1581 1582
1503 1510 1516 1524 1531 1542 1530 1534 1530 1515 1506 1501 1499 1499 1501 1504 1508 1511 1515 1517 1520 1522 1524 1526 1528 1530 1532 1534 1536 1538 1540 1543 1546 1549 1552 1555 1558 1560 1563 1565 1567 1569 1571 1573 1574 1576 1577 1579 1580
1505 1523 1543 1544 1552 1547 1532 1533 1527 1504 1498 1497 1496 1497 1499 1503 1506 1509 1513 1516 1518 1521 1523 1525 1527 1528 1530 1532 1534 1536 1538 1540 1543 1546 1549 1552 1554 1557 1560 1562 1564 1566 1568 1570 1572 1573 1574 1576 1577
1507 1517 1541 1551 1554 1547 1533 1533 1515 1498 1494 1493 1493 1495 1498 1501 1504 1508 1511 1514 1516 1518 1521 1523 1524 1526 1528 1530 1531 1534 1536 1538 1541 1543 1546 1549 1551 1554 1557 1559 1561 1563 1565 1567 1568 1570 1571 1573 1574
1508 1515 1516 1537 1543 1547 1540 1526 1508 1495 1494 1493 1493 1494 1497 1500 1503 1506 1509 1512 1515 1517 1519 1521 1522 1524 1526 1528 1529 1531 1533 1536 1538 1540 1543 1546 1548 1551 1553 1556 1558 1560 1561 1563 1565 1566 1567 1569 1570
1496 1508 1524 1537 1551 1552 1539 1531 1522 1501 1496 1494 1494 1495 1496 1499 1502 1505 1508 1510 1513 1515 1518 1519 1521 1523 1524 1526 1527 1529 1531 1534 1536 1538 1540 1543 1546 1548 1550 1552 1554 1556 1558 1559 1561 1562 1564 1565 1566
1503 1509 1519 1532 1535 1549 1549 1534 1501 1496 1491 1492 1492 1494 1495 1497 1500 1503 1506 1509 1511 1514 1516 1518 1520 1521 1522 1524 1526 1527 1529 1531 1533 1535 1538 1540 1542 1545 1546 1548 1550 1552 1554 1555 1556 1558 1560 1561 1562
1490 1500 1512 1524 1532 1538 1540 1528 1489 1488 1487 1489 1490 1492 1494 1497 1500 1503 1505 1508 1510 1512 1515 1517 1518 1520 1521 1523 1524 1526 1528 1530 1531 1533 1536 1538 1540 1542 1543 1545 1546 1548 1550 1551 1552 1554 1556 1557 1559